[[{"header":{"parameterUnit":"m.s-1","parameterCategory":1,"la1":30.2991,"la2":30.254,"lo1":-89.0895,"lo2":-89.0444,"dy":0.0017,"dx":0.0017,"nx":28,"ny":28,"refTime":"2025-08-14T21:00:00:Z","depth":0,"parameterNumber":2,"parameterNumberName":"U-component_of_WINDS"},"data":[0,0,0,0,0,0,0,0,0,0,0,0,0,0,0,0,0,0,0,0,0,0,0,0,0,0,0,0,0,0,0,0,0,0,0,0,0,0,0,0,0,0,0,0,0,0,0,0,0,0,0,0,0,0,0,0,0,0,2.6661,2.666,0,2.6648,2.6648,2.6648,2.6594,2.6593,2.6592,2.6591,2.6581,2.6582,2.6582,0,0,0,0,0,0,0,0,0,0,0,0,0,2.6639,2.6639,2.6661,2.666,2.666,2.6648,2.6648,2.6648,2.6595,2.6593,2.6591,2.659,2.658,2.6581,2.6583,0,0,0,0,0,0,0,0,0,0,0,0,0,2.664,2.664,2.6661,2.6632,2.6629,2.6648,2.6648,2.6648,2.6595,2.6593,2.6591,2.6589,2.658,2.6581,2.6583,2.6629,0,0,2.6587,2.6587,0,0,0,0,0,0,0,0,2.664,2.664,2.6636,2.6634,2.6631,2.6621,2.6637,2.6642,2.6595,2.6608,2.6591,2.6588,2.6596,2.6596,2.6598,2.6629,2.6628,2.6587,2.6588,2.6588,2.6589,0,0,0,0,0,0,0,2.664,2.6641,2.6656,2.6636,2.6633,2.662,2.6618,2.6637,2.6613,2.6607,2.6603,2.6602,2.6594,2.6596,2.6597,2.6628,2.6587,2.6588,2.6589,2.659,2.6693,2.6695,0,0,0,0,0,0,2.6643,2.6641,2.6656,2.6655,2.6631,2.6622,2.662,2.6626,2.6612,2.6608,2.6604,2.66,2.6595,2.6595,2.6596,2.6647,2.6588,2.659,2.659,2.6691,2.6693,2.6695,0,0,0,0,0,0,2.6643,2.6645,2.6657,2.6647,2.6648,2.6624,2.6632,2.6627,2.6629,2.661,2.6605,2.6611,2.6594,2.6595,2.662,2.6646,2.659,2.6591,2.6689,2.6692,2.6694,2.675,0,0,0,0,0,0,2.6643,2.6645,2.6663,2.6648,2.6648,2.6681,2.6634,2.6628,2.6631,2.6626,2.6615,2.6612,2.6592,2.6619,2.6622,2.6647,2.6593,2.6686,2.669,2.6694,2.6746,2.6755,2.6762,0,0,0,0,0,2.6642,2.668,2.6664,2.6666,2.6669,2.6682,2.6683,2.6658,2.6634,2.6651,2.6638,2.6612,2.6643,2.6622,2.6625,2.6651,2.6685,2.6689,2.6693,2.6742,2.6753,2.6762,0,0,0,0,0,0,2.67,2.6678,2.6659,2.6694,2.669,2.6673,2.6694,2.6671,2.6675,2.667,2.6641,2.6639,2.6668,2.6663,2.6639,2.6693,2.6659,2.6665,2.6696,2.6706,2.6713,2.6713,2.6594,0,0,0,0,0,2.6717,2.6729,2.6709,2.6741,2.674,2.6717,2.6722,2.6704,2.6699,2.6698,2.6687,2.6684,2.6693,2.6699,2.6707,2.6746,2.6741,2.6765,2.6773,2.678,2.6784,2.6801,2.681,2.671,2.671,2.671,0,0,2.6752,2.6741,2.675,2.6752,2.6747,2.676,2.6717,2.6733,2.6741,2.6701,2.6723,2.6715,2.671,2.6742,2.6755,2.6738,2.6811,2.6785,2.6791,2.6791,2.6806,2.6816,2.6824,2.6713,2.6712,2.6712,0,0,2.682,2.6815,2.6839,2.6834,2.6827,2.6811,2.6817,2.6803,2.6796,2.6818,2.6786,2.6797,2.6814,2.681,2.6811,2.6876,2.6852,2.688,2.6921,2.6939,2.6946,2.6953,2.6974,2.6982,2.6885,2.6885,2.6885,0,2.6865,2.6882,2.6855,2.6872,2.6873,2.6835,2.6859,2.6856,2.6852,2.6854,2.6834,2.6852,2.6846,2.6875,2.6891,2.6893,2.6898,2.688,2.6947,2.6954,2.696,2.6979,2.6988,2.6888,2.6888,2.6887,2.6887,0,2.6935,2.6947,2.6968,2.6963,2.6966,2.6987,2.6963,2.697,2.6951,2.6938,2.696,2.6951,2.6955,2.6961,2.6944,2.6987,2.6976,2.6953,2.6917,2.6973,2.6991,2.6998,2.6893,2.6891,2.6891,2.689,0,0,2.704,2.7018,2.7025,2.7021,2.7009,2.7018,2.7037,2.7039,2.7044,2.7043,2.7057,2.7071,2.7048,2.7049,2.7031,2.7046,2.7095,2.7021,2.702,2.7033,2.7139,2.7155,2.7164,2.708,2.7081,2.7082,2.7139,0,2.7103,2.7132,2.7107,2.7141,2.7151,2.7115,2.713,2.7125,2.7113,2.7119,2.7106,2.7115,2.7087,2.7086,2.71,2.7087,2.7116,2.7083,2.7091,2.7092,2.7091,2.7174,2.7191,2.7244,2.7146,2.7147,2.7148,0,2.718,2.718,2.7214,2.7197,2.72,2.7215,2.7213,2.7221,2.7213,2.7203,2.7203,2.718,2.7196,2.7164,2.7185,2.7163,2.7165,2.7159,2.716,2.7158,2.7122,2.7171,2.7261,2.7268,2.7159,2.7158,2.7157,0,2.7249,2.7258,2.7278,2.7276,2.7258,2.7269,2.7262,2.7252,2.7254,2.7254,2.7254,2.7257,2.7257,2.7259,2.7237,2.7216,2.7261,2.7227,2.7252,2.7252,2.7261,2.726,2.735,2.7267,2.7267,2.7267,2.7267,0,2.7321,2.7342,2.7308,2.7321,2.7343,2.7315,2.7339,2.7328,2.732,2.7329,2.73,2.7309,2.7281,2.7287,2.7271,2.729,2.7291,2.7283,2.7277,2.7284,2.7284,2.7283,2.7278,2.7269,2.7268,2.7268,2.7268,0,2.7401,2.7379,2.7399,2.7379,2.7375,2.7392,2.7376,2.7386,2.7372,2.7384,2.7385,2.7363,2.7369,2.7347,2.7351,2.7339,2.7366,2.7356,2.7368,2.7364,2.7389,2.7386,2.7479,2.7488,2.7402,2.7403,2.7404,0,2.7447,2.7462,2.7444,2.7447,2.7441,2.7448,2.7449,2.7422,2.7425,2.7416,2.7427,2.7431,2.7431,2.7443,2.7427,2.7429,2.7417,2.7449,2.7417,2.7422,2.7414,2.7412,2.7412,2.7455,2.7456,2.7457,2.7458,0,2.7529,2.7517,2.7519,2.7517,2.7519,2.7517,2.7513,2.7517,2.7488,2.7493,2.7497,2.7498,2.75,2.7503,2.7501,2.7494,2.7471,2.7469,2.7474,2.7479,2.7484,2.7479,2.7383,2.7466,2.7465,2.7465,2.7464,2.7464,2.7591,2.7602,2.759,2.7593,2.7587,2.7583,2.759,2.7576,2.7579,2.7578,2.7562,2.757,2.756,2.7555,2.755,2.7556,2.754,2.7549,2.7551,2.7552,2.7555,2.7485,2.7556,2.7555,2.7555,2.7555,2.7555,0,2.767,2.766,2.7663,2.7656,2.7658,2.7636,2.7629,2.7633,2.7639,2.7632,2.7633,2.7637,2.764,2.7623,2.7624,2.7631,2.762,2.7631,2.7629,2.7628,2.757,2.7564,2.764,2.764,2.764,2.764,2.764,2.764,2.771,2.7726,2.7712,2.7725,2.7715,2.772,2.7718,2.7714,2.7708,2.7714,2.7715,2.7704,2.7693,2.7692,2.7692,2.7688,2.7688,2.7703,2.7694,2.764,2.7632,2.7624,2.7618,2.7704,2.7704,2.775,2.7751,2.7751]},{"header":{"parameterUnit":"m.s-1","parameterCategory":1,"la1":30.2991,"la2":30.254,"lo1":-89.0895,"lo2":-89.0444,"dy":0.0017,"dx":0.0017,"nx":28,"ny":28,"refTime":"2025-08-14T21:00:00:Z","depth":0,"parameterNumber":3,"parameterNumberName":"V-component_of_WINDS"},"data":[0,0,0,0,0,0,0,0,0,0,0,0,0,0,0,0,0,0,0,0,0,0,0,0,0,0,0,0,0,0,0,0,0,0,0,0,0,0,0,0,0,0,0,0,0,0,0,0,0,0,0,0,0,0,0,0,0,0,4.1845,4.1847,0,4.2078,4.2081,4.2083,4.2128,4.2127,4.2125,4.2123,4.2355,4.2363,4.237,0,0,0,0,0,0,0,0,0,0,0,0,0,4.1432,4.1439,4.1844,4.1847,4.185,4.2078,4.2081,4.2084,4.2129,4.2126,4.2124,4.2122,4.2352,4.2362,4.2371,0,0,0,0,0,0,0,0,0,0,0,0,0,4.1632,4.1442,4.1844,4.19,4.1908,4.2077,4.2081,4.2085,4.2129,4.2126,4.2124,4.2121,4.2349,4.2361,4.2372,4.25,0,0,4.2409,4.2414,0,0,0,0,0,0,0,0,4.1621,4.1648,4.1889,4.1897,4.1905,4.2072,4.202,4.2224,4.213,4.2045,4.2123,4.212,4.2262,4.2281,4.2331,4.2511,4.2521,4.241,4.2417,4.2422,4.2425,0,0,0,0,0,0,0,4.1607,4.1638,4.1937,4.1892,4.1902,4.1912,4.1937,4.2059,4.2166,4.2052,4.2056,4.2083,4.2266,4.2319,4.2336,4.2524,4.2409,4.242,4.2427,4.2432,4.2822,4.2825,0,0,0,0,0,0,4.1584,4.1626,4.1929,4.1944,4.1754,4.1922,4.195,4.2021,4.2165,4.2184,4.2085,4.2085,4.23,4.2323,4.2345,4.2505,4.2422,4.2433,4.244,4.2819,4.2823,4.2826,0,0,0,0,0,0,4.1575,4.1611,4.192,4.1786,4.1826,4.1932,4.2011,4.2027,4.208,4.219,4.2209,4.212,4.2299,4.2328,4.2462,4.2514,4.2438,4.2449,4.2815,4.282,4.2824,4.2825,0,0,0,0,0,0,4.1563,4.1607,4.1658,4.1787,4.1833,4.2035,4.2014,4.2033,4.2101,4.2102,4.2228,4.2246,4.2299,4.2444,4.2474,4.2528,4.2458,4.2811,4.2817,4.2823,4.2821,4.2829,4.2837,0,0,0,0,0,4.1548,4.1647,4.166,4.1697,4.1899,4.2038,4.2064,4.2125,4.2105,4.2156,4.2227,4.2242,4.2503,4.2457,4.2491,4.255,4.2808,4.2815,4.2822,4.2817,4.2828,4.2837,0,0,0,0,0,0,4.1519,4.1665,4.1681,4.1825,4.1919,4.2045,4.2112,4.2134,4.2234,4.223,4.23,4.2328,4.2458,4.2517,4.2464,4.2682,4.2654,4.2668,4.2638,4.2649,4.2657,4.264,4.2468,0,0,0,0,0,4.153,4.1632,4.1753,4.1868,4.1915,4.2005,4.2068,4.2107,4.2206,4.2245,4.2326,4.2419,4.2523,4.2589,4.269,4.283,4.2858,4.2887,4.2894,4.29,4.2912,4.2991,4.3006,4.285,4.285,4.285,0,0,4.1552,4.1644,4.1704,4.1865,4.1942,4.2045,4.2038,4.2147,4.2223,4.2261,4.2393,4.2456,4.2564,4.2702,4.2766,4.2755,4.2961,4.291,4.2914,4.2923,4.3,4.3015,4.3028,4.2855,4.2854,4.2854,0,0,4.1645,4.1726,4.1832,4.191,4.2028,4.2088,4.2113,4.2237,4.228,4.2415,4.2445,4.2536,4.2712,4.2789,4.2851,4.2976,4.2993,4.3006,4.3048,4.3124,4.3136,4.3147,4.3192,4.3208,4.3018,4.3018,4.3018,0,4.1658,4.1816,4.1882,4.1991,4.2061,4.2102,4.2209,4.2281,4.2425,4.2471,4.2457,4.2681,4.2757,4.2914,4.2944,4.2993,4.3023,4.2993,4.3129,4.3141,4.3153,4.3196,4.3213,4.3018,4.3018,4.3018,4.3018,0,4.1826,4.1935,4.2006,4.2147,4.2225,4.2331,4.2412,4.2483,4.2515,4.2576,4.2712,4.2805,4.2927,4.2967,4.2998,4.3128,4.3118,4.3116,4.3089,4.3167,4.321,4.3227,4.302,4.3019,4.3019,4.3019,0,0,4.1907,4.2085,4.211,4.2175,4.2309,4.2394,4.2502,4.2624,4.2683,4.2781,4.2873,4.3022,4.3022,4.3092,4.3133,4.32,4.3294,4.319,4.3194,4.3207,4.3443,4.3444,4.3463,4.3306,4.3309,4.3312,4.3434,0,4.2017,4.2215,4.2278,4.2443,4.2544,4.2586,4.268,4.2772,4.2831,4.2925,4.299,4.3095,4.3086,4.3129,4.3197,4.3268,4.3342,4.326,4.3392,4.3395,4.3364,4.3485,4.3487,4.3597,4.3451,4.3454,4.3456,0,4.2172,4.2276,4.2451,4.2574,4.2619,4.2703,4.2821,4.291,4.3014,4.3053,4.3133,4.3169,4.3282,4.3249,4.3406,4.3349,4.3406,4.3449,4.3455,4.347,4.3431,4.3504,4.3634,4.3651,4.3483,4.348,4.3479,0,4.2215,4.2398,4.2527,4.2581,4.2728,4.2786,4.2849,4.2951,4.3021,4.3122,4.3168,4.3279,4.3341,4.3426,4.3491,4.3461,4.3642,4.3614,4.3677,4.3675,4.3714,4.371,4.3856,4.3749,4.3749,4.3749,4.3748,0,4.2332,4.2437,4.2549,4.2628,4.2748,4.2819,4.2934,4.2999,4.309,4.3182,4.3223,4.3307,4.3388,4.3483,4.3534,4.3657,4.3683,4.3717,4.373,4.3714,4.371,4.3753,4.3747,4.3753,4.3752,4.3751,4.3751,0,4.2399,4.2478,4.2622,4.275,4.2784,4.2867,4.2975,4.3053,4.3115,4.323,4.3261,4.3358,4.3472,4.3545,4.3689,4.3724,4.3858,4.3868,4.3824,4.383,4.3889,4.3883,4.4068,4.4096,4.3969,4.3971,4.3971,0,4.2469,4.2552,4.2689,4.2755,4.282,4.2925,4.2997,4.3069,4.3142,4.3269,4.3331,4.3449,4.3547,4.3726,4.3808,4.3919,4.3932,4.3989,4.3948,4.3931,4.3934,4.3928,4.3937,4.3995,4.3996,4.3997,4.3998,0,4.2584,4.262,4.2724,4.2842,4.2927,4.3022,4.3117,4.3168,4.3257,4.3337,4.3456,4.3532,4.3681,4.3797,4.3916,4.3978,4.4003,4.401,4.4031,4.4016,4.3988,4.4005,4.3843,4.4006,4.4005,4.4004,4.4004,4.4004,4.2656,4.2732,4.2842,4.2956,4.3036,4.3125,4.3205,4.3278,4.3379,4.3509,4.3545,4.3669,4.3771,4.3934,4.3999,4.4096,4.4089,4.4118,4.4126,4.4132,4.4134,4.3972,4.4118,4.4118,4.4117,4.4117,4.4117,0,4.2775,4.2848,4.2952,4.3086,4.3176,4.3194,4.3301,4.3374,4.3484,4.3579,4.3675,4.3812,4.3925,4.4016,4.4132,4.4193,4.4207,4.4221,4.4217,4.4231,4.4133,4.4104,4.4207,4.4207,4.4207,4.4207,4.4207,4.4207,4.2847,4.2978,4.3026,4.3197,4.3269,4.3393,4.3453,4.3534,4.3611,4.3763,4.3858,4.3918,4.4012,4.4135,4.4239,4.4263,4.4304,4.4316,4.4342,4.4248,4.4238,4.4229,4.4202,4.4324,4.4324,4.4433,4.4434,4.4434]}]]